When you browse on this site, cookies collect data to enhance your experience and personalize the content and advertising you see.
Visit our Privacy Policy to learn more. By continuing to use the site, you agree to this use of cookies and data.
  • In Czech Republic
  • List of Countries
  • For 7 days
  • Water Temperature
  • Satellite Maps
  • Weather Map
  • Weather Widgets
  • user-avatar
    Login

    Hourly Weather Finkovo

    Today, 18 February, Monday

    Time Temperature Precipitation Wind Pressure Humidity
    00:00 -4°C° 0 mm 3 mps 755 mmHg 84%
    01:00 -4°C° 0 mm 3 mps 756 mmHg 85%
    02:00 -4°C° 0 mm 2 mps 756 mmHg 90%
    03:00 -5°C° 0 mm 2 mps 757 mmHg 91%
    04:00 -5°C° 0 mm 2 mps 757 mmHg 92%
    05:00 -6°C° 0 mm 2 mps 757 mmHg 93%
    06:00 -6°C° 0 mm 2 mps 758 mmHg 92%
    07:00 -4°C° 0 mm 1 mps 758 mmHg 92%
    08:00 -6°C° 0 mm 2 mps 759 mmHg 90%
    09:00 -3°C° 0 mm 1 mps 759 mmHg 84%
    10:00 -2°C° 0 mm 1 mps 759 mmHg 78%
    11:00 -1°C° 0 mm 1 mps 759 mmHg 72%
    12:00 0°C° 0 mm 1 mps 759 mmHg 68%
    13:00 0°C° 0 mm 1 mps 759 mmHg 65%
    14:00 +1°C° 0 mm 1 mps 759 mmHg 61%
    15:00 0°C° 0 mm 1 mps 759 mmHg 65%
    16:00 -1°C° 0 mm 1 mps 759 mmHg 70%
    17:00 -1°C° 0 mm 1 mps 758 mmHg 74%
    18:00 -4°C° 0 mm 2 mps 758 mmHg 75%
    19:00 -4°C° 0 mm 2 mps 758 mmHg 75%
    20:00 -4°C° 0 mm 2 mps 758 mmHg 76%
    21:00 -5°C° 0 mm 3 mps 757 mmHg 73%
    22:00 -5°C° 0 mm 3 mps 757 mmHg 71%
    23:00 -4°C° 0 mm 4 mps 757 mmHg 69%

    Tomorrow, 19 February, Tuesday

    Time Temperature Precipitation Wind Pressure Humidity
    00:00 -4°C° 0 mm 4 mps 756 mmHg 68%
    01:00 -4°C° 0 mm 4 mps 756 mmHg 67%
    02:00 -3°C° 0 mm 4 mps 755 mmHg 66%
    03:00 -3°C° 0 mm 4 mps 754 mmHg 69%
    04:00 -4°C° 0 mm 5 mps 754 mmHg 73%
    05:00 -4°C° 0 mm 5 mps 753 mmHg 77%
    06:00 -4°C° 0 mm 5 mps 753 mmHg 80%
    07:00 -4°C° 0 mm 5 mps 752 mmHg 82%
    08:00 -2°C° 0 mm 5 mps 752 mmHg 84%
    09:00 -1°C° 0 mm 5 mps 751 mmHg 83%
    10:00 -1°C° 0 mm 5 mps 751 mmHg 82%
    11:00 0°C° 0 mm 5 mps 750 mmHg 81%
    12:00 +1°C° 0 mm 5 mps 749 mmHg 81%
    13:00 +1°C° 0 mm 5 mps 749 mmHg 81%
    14:00 +1°C° 0 mm 4 mps 748 mmHg 82%
    15:00 +1°C° 0 mm 4 mps 747 mmHg 83%
    16:00 +1°C° 0 mm 4 mps 747 mmHg 85%
    17:00 0°C° 0 mm 4 mps 746 mmHg 86%
    18:00 0°C° 0 mm 4 mps 745 mmHg 87%
    19:00 0°C° 0 mm 4 mps 745 mmHg 88%
    20:00 0°C° 0 mm 5 mps 744 mmHg 89%
    21:00 0°C° 0 mm 5 mps 744 mmHg 88%
    22:00 0°C° 0 mm 5 mps 743 mmHg 88%
    23:00 +1°C° 0 mm 5 mps 742 mmHg 87%

    Day after tomorrow, 20 February, Wednesday

    Time Temperature Precipitation Wind Pressure Humidity
    00:00 +1°C° 0.2 mm 5 mps 742 mmHg 88%
    01:00 +1°C° 0.2 mm 5 mps 742 mmHg 88%
    02:00 +1°C° 0.2 mm 5 mps 742 mmHg 89%
    03:00 +1°C° 0 mm 5 mps 742 mmHg 89%
    04:00 +1°C° 0 mm 4 mps 741 mmHg 90%
    05:00 +1°C° 0 mm 4 mps 741 mmHg 90%
    06:00 +1°C° 0.1 mm 4 mps 741 mmHg 90%
    07:00 +1°C° 0.1 mm 4 mps 741 mmHg 89%
    08:00 0°C° 0.1 mm 4 mps 741 mmHg 89%
    09:00 +1°C° 0.1 mm 4 mps 741 mmHg 87%
    10:00 +1°C° 0.1 mm 5 mps 741 mmHg 85%
    11:00 +1°C° 0.1 mm 5 mps 741 mmHg 82%
    12:00 +1°C° 0 mm 5 mps 741 mmHg 82%
    13:00 +1°C° 0 mm 5 mps 741 mmHg 81%
    14:00 +1°C° 0 mm 5 mps 741 mmHg 80%
    15:00 +1°C° 0.1 mm 5 mps 741 mmHg 81%
    16:00 +1°C° 0.1 mm 5 mps 741 mmHg 82%
    17:00 0°C° 0.1 mm 5 mps 741 mmHg 83%
    18:00 0°C° 0.2 mm 5 mps 741 mmHg 80%
    19:00 -1°C° 0.2 mm 6 mps 741 mmHg 77%
    20:00 -2°C° 0.2 mm 6 mps 742 mmHg 74%
    21:00 -2°C° 0.1 mm 6 mps 742 mmHg 76%
    22:00 -3°C° 0.1 mm 6 mps 743 mmHg 78%
    23:00 -4°C° 0.1 mm 6 mps 743 mmHg 79%

    21 February, Thursday

    Time Temperature Precipitation Wind Pressure Humidity
    00:00 -4°C° 0.1 mm 6 mps 744 mmHg 78%
    01:00 -4°C° 0.1 mm 6 mps 745 mmHg 77%
    02:00 -4°C° 0.1 mm 6 mps 745 mmHg 76%
    03:00 -5°C° 0.1 mm 6 mps 746 mmHg 75%
    04:00 -5°C° 0.1 mm 6 mps 746 mmHg 73%
    05:00 -5°C° 0.1 mm 6 mps 747 mmHg 72%
    06:00 -6°C° 0.1 mm 6 mps 747 mmHg 70%
    07:00 -8°C° 0.1 mm 6 mps 748 mmHg 68%
    08:00 -8°C° 0.1 mm 6 mps 749 mmHg 67%
    09:00 -7°C° 0 mm 5 mps 750 mmHg 65%
    10:00 -7°C° 0 mm 5 mps 750 mmHg 63%
    11:00 -7°C° 0 mm 5 mps 751 mmHg 61%
    12:00 -7°C° 0 mm 5 mps 752 mmHg 60%
    13:00 -7°C° 0 mm 5 mps 752 mmHg 60%
    14:00 -7°C° 0 mm 5 mps 753 mmHg 59%
    15:00 -7°C° 0 mm 5 mps 754 mmHg 60%
    16:00 -7°C° 0 mm 4 mps 754 mmHg 61%
    17:00 -8°C° 0 mm 4 mps 755 mmHg 62%
    18:00 -8°C° 0 mm 4 mps 756 mmHg 63%
    19:00 -9°C° 0 mm 4 mps 757 mmHg 63%
    20:00 -10°C° 0 mm 5 mps 758 mmHg 64%
    21:00 -9°C° 0 mm 4 mps 759 mmHg 65%
    22:00 -10°C° 0 mm 4 mps 759 mmHg 65%
    23:00 -10°C° 0 mm 4 mps 760 mmHg 66%

    22 February, Friday

    Time Temperature Precipitation Wind Pressure Humidity
    00:00 -9°C° 0 mm 3 mps 761 mmHg 68%
    01:00 -9°C° 0 mm 3 mps 762 mmHg 70%
    02:00 -10°C° 0 mm 3 mps 762 mmHg 72%
    03:00 -10°C° 0 mm 3 mps 763 mmHg 72%
    04:00 -10°C° 0 mm 3 mps 764 mmHg 73%
    05:00 -10°C° 0 mm 3 mps 764 mmHg 74%
    06:00 -10°C° 0 mm 3 mps 765 mmHg 72%
    07:00 -10°C° 0 mm 3 mps 766 mmHg 71%
    08:00 -10°C° 0 mm 3 mps 766 mmHg 69%
    09:00 -9°C° 0 mm 3 mps 767 mmHg 64%
    10:00 -8°C° 0 mm 3 mps 767 mmHg 59%
    11:00 -7°C° 0 mm 3 mps 768 mmHg 54%
    12:00 -7°C° 0 mm 4 mps 768 mmHg 51%
    13:00 -5°C° 0 mm 4 mps 768 mmHg 48%
    14:00 -4°C° 0 mm 4 mps 768 mmHg 44%
    15:00 -5°C° 0 mm 4 mps 768 mmHg 48%
    16:00 -5°C° 0 mm 4 mps 769 mmHg 52%
    17:00 -6°C° 0 mm 3 mps 769 mmHg 56%
    18:00 -6°C° 0 mm 3 mps 769 mmHg 60%
    19:00 -7°C° 0 mm 3 mps 769 mmHg 63%
    20:00 -8°C° 0 mm 3 mps 770 mmHg 67%
    21:00 -7°C° 0 mm 2 mps 770 mmHg 70%
    22:00 -7°C° 0 mm 2 mps 769 mmHg 74%
    23:00 -7°C° 0 mm 1 mps 769 mmHg 77%

    23 February, Saturday

    Time Temperature Precipitation Wind Pressure Humidity
    00:00 -7°C° 0 mm 1 mps 769 mmHg 77%
    01:00 -7°C° 0 mm 1 mps 769 mmHg 78%
    02:00 -7°C° 0 mm 1 mps 768 mmHg 78%
    03:00 -8°C° 0 mm 2 mps 767 mmHg 74%
    04:00 -7°C° 0 mm 2 mps 766 mmHg 70%
    05:00 -7°C° 0 mm 2 mps 765 mmHg 67%
    06:00 -8°C° 0.4 mm 3 mps 765 mmHg 75%
    07:00 -8°C° 0.4 mm 3 mps 764 mmHg 83%
    08:00 -8°C° 0.4 mm 3 mps 763 mmHg 91%
    09:00 -7°C° 0.4 mm 3 mps 762 mmHg 89%
    10:00 -6°C° 0.4 mm 3 mps 761 mmHg 87%
    11:00 -7°C° 0.4 mm 4 mps 760 mmHg 84%
    12:00 -6°C° 0.3 mm 3 mps 759 mmHg 86%
    13:00 -5°C° 0.3 mm 3 mps 759 mmHg 88%
    14:00 -5°C° 0.3 mm 3 mps 758 mmHg 90%
    15:00 -4°C° 0.3 mm 2 mps 758 mmHg 91%
    16:00 -4°C° 0.3 mm 2 mps 758 mmHg 92%
    17:00 -4°C° 0.3 mm 2 mps 757 mmHg 92%
    18:00 -3°C° 0.1 mm 2 mps 758 mmHg 93%
    19:00 -3°C° 0.1 mm 2 mps 758 mmHg 94%
    20:00 -1°C° 0.1 mm 1 mps 758 mmHg 95%
    21:00 0°C° 0 mm 1 mps 758 mmHg 95%
    22:00 0°C° 0 mm 1 mps 758 mmHg 96%
    23:00 +1°C° 0 mm 1 mps 758 mmHg 97%
    Show more